Tracking 28790 objects as of 19-Apr-2024
HD Live streaming from Space Station
objects crossing your sky now

SL-8 R/B

Track SL-8 R/B now!
10-day predictions


NORAD ID: 10492
Int'l Code: 1977-109B
Perigee: 1,177.4 km
Apogee: 1,208.4 km
Inclination: 82.9 °
Period: 109.1 minutes
Semi major axis: 7563 km
RCS: 5.0966 m2 (large)
Launch date: November 24, 1977
Source: Commonwealth of Independent States (former USSR) (CIS)
Launch site: PLESETSK MISSILE AND SPACE COMPLEX (PKMTR)

Note: This is a ROCKET BODY
Your satellite tracking list
Your tracking list is empty




NASA's NSSDC Master Catalog

Two Line Element Set (TLE):
1 10492U 77109B   24109.89694019  .00000043  00000-0  74176-4 0  9998
2 10492  82.9259  39.5257 0020467 153.9548 270.1968 13.19731734234515
Source of the keplerian elements: AFSPC